Starlink 30800

operational
NORAD ID: 58206 Int'l Des: 2023-170 Owner: SPXS Country: US Constellation: starlink
LEOCIRCULAR

Über Starlink 30800

Beschreibung wird geladen...

Live-Position

3D-Globus wird geladen...

Nächste Überflüge

Höhenverlauf

Altitude vs Time

uPlot chart will show altitude changes over time

Zweizeiliger Elementsatz

1 58206U 23170A 25351.50355427 .00000238 00000-0 32700-4 0 9990
2 58206 43.0041 282.7460 0000981 266.9441 93.1289 15.02540266117916
Epoch: 17. Dez. 2025 • Age: 21 hours

Aktueller Status

Höhe 561.0 km
Geschwindigkeit 7.59 km/s
Subsatellitenpunkt 34.46°N, 101.69°E
Startdatum 4. Nov. 2023
Alter 2.1 years
Typ internet

Technische Details

Klassifizierung Payload
Masse 730.00 kg
Trockenmasse 700.00 kg
Gesamtmasse 730.00 kg
Länge 0.30 m
Durchmesser 4.10 m
Spannweite 29.00 m
Form Box + pan
Hersteller SPXS
Bus-Typ Starlink V2M
Phasenstatus In Orbit
Besitzer/Staat SPXS/US

Große Konstellationen

Loading constellations...